Time,TemperatureF,DewpointF,PressureIn,WindDirection,WindDirectionDegrees,WindSpeedMPH,WindSpeedGustMPH,Humidity,HourlyPrecipIn,Conditions,Clouds,dailyrainin,SoftwareType,DateUTC
2013-01-26 00:03:00,54.0,54.0,30.23,SW,228,0.0,0.0,100,0.00,,,0.01,,2013-01-26 05:03:00,
2013-01-26 00:12:00,54.0,54.0,30.23,SW,228,0.0,0.0,100,0.00,,,0.01,,2013-01-26 05:12:00,
2013-01-26 00:23:00,54.0,54.0,30.24,SW,228,0.0,0.0,100,0.00,,,0.01,,2013-01-26 05:23:00,
2013-01-26 00:33:00,54.0,54.0,30.24,SW,228,0.0,0.0,100,0.00,,,0.01,,2013-01-26 05:33:00,
2013-01-26 00:42:00,54.0,54.0,30.24,SW,228,0.0,0.0,100,0.00,,,0.01,,2013-01-26 05:42:00,
2013-01-26 00:52:00,54.0,54.0,30.24,SW,228,2.0,2.0,100,0.00,,,0.01,,2013-01-26 05:52:00,
2013-01-26 01:03:00,56.0,56.0,30.24,WSW,239,1.0,2.0,100,0.00,,,0.01,,2013-01-26 06:03:00,
2013-01-26 01:12:00,56.0,56.0,30.24,WSW,239,1.0,2.0,100,0.00,,,0.01,,2013-01-26 06:12:00,
2013-01-26 01:21:00,56.0,56.0,30.24,West,274,1.0,3.0,100,0.00,,,0.01,,2013-01-26 06:21:00,
2013-01-26 01:32:00,57.0,57.0,30.25,WNW,291,2.0,4.0,100,0.00,,,0.01,,2013-01-26 06:32:00,
2013-01-26 01:42:00,57.0,57.0,30.25,WNW,291,2.0,4.0,100,0.00,,,0.01,,2013-01-26 06:42:00,
2013-01-26 01:52:00,57.0,57.0,30.26,West,281,2.0,5.0,100,0.00,,,0.01,,2013-01-26 06:52:00,
2013-01-26 02:02:00,57.0,57.0,30.24,WNW,282,0.0,3.0,100,0.00,,,0.01,,2013-01-26 07:02:00,
2013-01-26 02:12:00,57.0,57.0,30.24,WNW,282,0.0,3.0,100,0.00,,,0.01,,2013-01-26 07:12:00,
2013-01-26 02:22:00,57.0,57.0,30.24,WNW,282,0.0,3.0,100,0.00,,,0.01,,2013-01-26 07:22:00,
2013-01-26 02:33:00,57.0,57.0,30.23,WNW,289,1.0,3.0,100,0.00,,,0.01,,2013-01-26 07:33:00,
2013-01-26 02:41:00,57.0,57.0,30.23,WNW,289,1.0,3.0,100,0.00,,,0.01,,2013-01-26 07:41:00,
2013-01-26 02:52:00,57.0,57.0,30.24,WNW,287,1.0,5.0,100,0.00,,,0.01,,2013-01-26 07:52:00,
2013-01-26 03:02:00,57.0,57.0,30.24,WNW,289,1.0,3.0,100,0.00,,,0.01,,2013-01-26 08:02:00,
2013-01-26 03:11:00,57.0,57.0,30.24,WNW,289,1.0,3.0,100,0.00,,,0.01,,2013-01-26 08:11:00,
2013-01-26 03:21:00,57.0,57.0,30.23,WNW,288,1.0,2.0,100,0.00,,,0.01,,2013-01-26 08:21:00,
2013-01-26 03:32:00,57.0,57.0,30.22,WNW,288,0.0,2.0,100,0.00,,,0.01,,2013-01-26 08:32:00,
2013-01-26 03:42:00,57.0,57.0,30.22,WNW,288,0.0,2.0,100,0.00,,,0.01,,2013-01-26 08:42:00,
2013-01-26 03:54:00,57.0,57.0,30.22,WNW,288,0.0,2.0,100,0.00,,,0.01,,2013-01-26 08:54:00,
2013-01-26 04:02:00,56.0,56.0,30.22,WNW,288,1.0,2.0,100,0.00,,,0.01,,2013-01-26 09:02:00,
2013-01-26 04:11:00,56.0,56.0,30.22,WNW,288,1.0,2.0,100,0.00,,,0.01,,2013-01-26 09:11:00,
2013-01-26 04:22:00,56.0,56.0,30.23,WNW,288,0.0,1.0,100,0.00,,,0.01,,2013-01-26 09:22:00,
2013-01-26 04:32:00,56.0,56.0,30.22,WNW,288,0.0,0.0,100,0.00,,,0.01,,2013-01-26 09:32:00,
2013-01-26 04:42:00,56.0,56.0,30.22,WNW,288,0.0,0.0,100,0.00,,,0.01,,2013-01-26 09:42:00,
2013-01-26 04:51:00,55.0,55.0,30.22,WNW,288,1.0,3.0,100,0.00,,,0.01,,2013-01-26 09:51:00,
2013-01-26 05:01:00,56.0,56.0,30.22,WNW,288,0.0,0.0,100,0.00,,,0.01,,2013-01-26 10:01:00,
2013-01-26 05:12:00,56.0,56.0,30.22,WNW,288,0.0,0.0,100,0.00,,,0.01,,2013-01-26 10:12:00,
2013-01-26 05:21:00,55.0,55.0,30.22,WNW,288,0.0,1.0,100,0.00,,,0.00,,2013-01-26 10:21:00,
2013-01-26 05:32:00,55.0,55.0,30.22,WNW,288,0.0,1.0,100,0.00,,,0.00,,2013-01-26 10:32:00,
2013-01-26 05:42:00,55.0,55.0,30.22,WNW,288,0.0,1.0,100,0.00,,,0.00,,2013-01-26 10:42:00,
2013-01-26 05:52:00,54.0,54.0,30.23,WNW,288,0.0,0.0,100,0.00,,,0.00,,2013-01-26 10:52:00,
2013-01-26 06:01:00,54.0,54.0,30.22,WNW,288,0.0,0.0,100,0.00,,,0.00,,2013-01-26 11:01:00,
2013-01-26 06:12:00,54.0,54.0,30.22,WNW,288,0.0,0.0,100,0.00,,,0.00,,2013-01-26 11:12:00,
2013-01-26 06:22:00,53.0,53.0,30.24,WNW,288,0.0,0.0,100,0.00,,,0.00,,2013-01-26 11:22:00,
2013-01-26 06:32:00,52.0,52.0,30.24,WNW,288,0.0,0.0,100,0.00,,,0.00,,2013-01-26 11:32:00,
2013-01-26 06:42:00,52.0,52.0,30.24,WNW,288,0.0,0.0,100,0.00,,,0.00,,2013-01-26 11:42:00,
2013-01-26 06:52:00,52.0,52.0,30.23,WNW,288,0.0,0.0,100,0.00,,,0.00,,2013-01-26 11:52:00,
2013-01-26 07:02:00,52.0,52.0,30.24,WNW,288,0.0,0.0,100,0.00,,,0.00,,2013-01-26 12:02:00,
2013-01-26 07:12:00,52.0,52.0,30.24,WNW,288,0.0,0.0,100,0.00,,,0.00,,2013-01-26 12:12:00,
2013-01-26 07:23:00,52.0,52.0,30.27,WNW,288,0.0,0.0,100,0.00,,,0.00,,2013-01-26 12:23:00,
2013-01-26 07:33:00,52.0,52.0,30.25,WNW,288,0.0,0.0,100,0.00,,,0.00,,2013-01-26 12:33:00,
2013-01-26 07:42:00,52.0,52.0,30.25,WNW,288,0.0,0.0,100,0.00,,,0.00,,2013-01-26 12:42:00,
2013-01-26 07:53:00,52.0,52.0,30.26,WNW,288,0.0,0.0,100,0.00,,,0.00,,2013-01-26 12:53:00,
2013-01-26 08:03:00,52.0,52.0,30.27,WNW,288,0.0,0.0,100,0.00,,,0.00,,2013-01-26 13:03:00,
2013-01-26 08:12:00,52.0,52.0,30.27,WNW,288,0.0,0.0,100,0.00,,,0.00,,2013-01-26 13:12:00,
2013-01-26 08:22:00,53.0,53.0,30.27,SW,222,3.0,3.0,100,0.00,,,0.00,,2013-01-26 13:22:00,
2013-01-26 08:33:00,55.0,55.0,30.27,SSW,204,1.0,2.0,100,0.00,,,0.00,,2013-01-26 13:33:00,
2013-01-26 08:42:00,55.0,55.0,30.27,SSW,204,1.0,2.0,100,0.00,,,0.00,,2013-01-26 13:42:00,
2013-01-26 08:53:00,56.0,56.0,30.27,SSW,204,0.0,1.0,100,0.00,,,0.00,,2013-01-26 13:53:00,
2013-01-26 09:03:00,59.0,59.0,30.28,SSW,204,0.0,0.0,100,0.00,,,0.00,,2013-01-26 14:03:00,
2013-01-26 09:12:00,59.0,59.0,30.28,SSW,204,0.0,0.0,100,0.00,,,0.00,,2013-01-26 14:12:00,
2013-01-26 09:22:00,60.0,60.0,30.28,SSW,201,0.0,3.0,100,0.01,,,0.01,,2013-01-26 14:22:00,
2013-01-26 09:32:00,62.0,62.0,30.29,ESE,110,1.0,2.0,100,0.01,,,0.01,,2013-01-26 14:32:00,
2013-01-26 09:43:00,62.0,62.0,30.29,ESE,110,1.0,2.0,100,0.01,,,0.01,,2013-01-26 14:43:00,
2013-01-26 09:53:00,63.0,63.0,30.29,ESE,109,0.0,2.0,100,0.01,,,0.01,,2013-01-26 14:53:00,
2013-01-26 10:03:00,65.0,65.0,30.29,ESE,109,0.0,2.0,100,0.01,,,0.01,,2013-01-26 15:03:00,
2013-01-26 10:12:00,65.0,65.0,30.29,ESE,109,0.0,2.0,100,0.01,,,0.01,,2013-01-26 15:12:00,
2013-01-26 10:22:00,68.0,68.0,30.29,ESE,102,2.0,3.0,100,0.00,,,0.01,,2013-01-26 15:22:00,
2013-01-26 10:32:00,68.0,68.0,30.29,East,101,0.0,2.0,100,0.00,,,0.01,,2013-01-26 15:32:00,
2013-01-26 10:43:00,68.0,68.0,30.29,East,101,0.0,2.0,100,0.00,,,0.01,,2013-01-26 15:43:00,
2013-01-26 10:53:00,69.0,69.0,30.30,West,269,0.0,6.0,100,0.00,,,0.01,,2013-01-26 15:53:00,
2013-01-26 11:02:00,71.0,71.0,30.30,West,269,1.0,5.0,100,0.00,,,0.01,,2013-01-26 16:02:00,
2013-01-26 11:12:00,71.0,71.0,30.29,NNW,346,5.0,8.0,100,0.00,,,0.01,,2013-01-26 16:12:00,
2013-01-26 11:22:00,71.0,71.0,30.29,NNW,346,5.0,8.0,100,0.00,,,0.01,,2013-01-26 16:22:00,
2013-01-26 11:33:00,73.0,73.0,30.30,North,0,2.0,10.0,100,0.00,,,0.01,,2013-01-26 16:33:00,
2013-01-26 11:42:00,73.0,73.0,30.30,North,0,2.0,10.0,100,0.00,,,0.01,,2013-01-26 16:42:00,
2013-01-26 11:53:00,72.0,72.0,30.29,NNW,342,2.0,8.0,100,0.00,,,0.01,,2013-01-26 16:53:00,
2013-01-26 12:03:00,72.0,72.0,30.29,West,277,3.0,7.0,100,0.00,,,0.01,,2013-01-26 17:03:00,
2013-01-26 12:13:00,72.0,72.0,30.29,West,277,3.0,7.0,100,0.00,,,0.01,,2013-01-26 17:13:00,
2013-01-26 12:22:00,74.0,74.0,30.28,NNW,329,9.0,9.0,100,0.00,,,0.01,,2013-01-26 17:22:00,
2013-01-26 12:33:00,74.0,74.0,30.28,NNW,341,6.0,11.0,100,0.00,,,0.01,,2013-01-26 17:33:00,
2013-01-26 12:42:00,74.0,74.0,30.28,NNW,341,6.0,11.0,100,0.00,,,0.01,,2013-01-26 17:42:00,
2013-01-26 12:53:00,75.0,75.0,30.27,NNW,345,4.0,8.0,100,0.00,,,0.01,,2013-01-26 17:53:00,
2013-01-26 13:03:00,76.0,76.0,30.26,NNW,329,2.0,6.0,100,0.00,,,0.01,,2013-01-26 18:03:00,
2013-01-26 13:12:00,76.0,76.0,30.26,NNW,329,2.0,6.0,100,0.00,,,0.01,,2013-01-26 18:12:00,
2013-01-26 13:22:00,76.0,76.0,30.25,NNW,336,3.0,8.0,100,0.00,,,0.01,,2013-01-26 18:22:00,
2013-01-26 13:33:00,76.0,76.0,30.24,NNE,12,5.0,14.0,100,0.00,,,0.01,,2013-01-26 18:33:00,
2013-01-26 13:42:00,76.0,76.0,30.24,NNE,12,5.0,14.0,100,0.00,,,0.01,,2013-01-26 18:42:00,
2013-01-26 13:53:00,74.0,74.0,30.24,NW,312,5.0,13.0,100,0.00,,,0.01,,2013-01-26 18:53:00,
2013-01-26 14:03:00,76.0,76.0,30.23,NNW,331,6.0,8.0,100,0.00,,,0.01,,2013-01-26 19:03:00,
2013-01-26 14:12:00,76.0,76.0,30.23,NNW,331,6.0,8.0,100,0.00,,,0.01,,2013-01-26 19:12:00,
2013-01-26 14:22:00,74.0,74.0,30.23,WNW,303,6.0,9.0,100,0.00,,,0.01,,2013-01-26 19:22:00,
2013-01-26 14:32:00,74.0,74.0,30.22,WNW,301,7.0,14.0,100,0.00,,,0.01,,2013-01-26 19:32:00,
2013-01-26 14:42:00,74.0,74.0,30.22,WNW,301,7.0,14.0,100,0.00,,,0.01,,2013-01-26 19:42:00,
2013-01-26 14:53:00,74.0,74.0,30.22,NW,304,6.0,9.0,100,0.00,,,0.01,,2013-01-26 19:53:00,
2013-01-26 15:02:00,73.0,73.0,30.21,WNW,293,7.0,11.0,100,0.00,,,0.01,,2013-01-26 20:02:00,
2013-01-26 15:11:00,73.0,73.0,30.21,WNW,293,7.0,11.0,100,0.00,,,0.01,,2013-01-26 20:11:00,
2013-01-26 15:22:00,73.0,73.0,30.21,West,275,5.0,11.0,100,0.00,,,0.01,,2013-01-26 20:22:00,
2013-01-26 15:32:00,74.0,74.0,30.21,NNW,331,11.0,15.0,100,0.00,,,0.01,,2013-01-26 20:32:00,
2013-01-26 15:42:00,74.0,74.0,30.21,NNW,331,11.0,15.0,100,0.00,,,0.01,,2013-01-26 20:42:00,
2013-01-26 15:52:00,72.0,72.0,30.20,North,358,8.0,10.0,100,0.00,,,0.01,,2013-01-26 20:52:00,
2013-01-26 16:02:00,72.0,72.0,30.20,NNW,334,8.0,11.0,100,0.00,,,0.01,,2013-01-26 21:02:00,
2013-01-26 16:12:00,72.0,72.0,30.20,NNW,334,8.0,11.0,100,0.00,,,0.01,,2013-01-26 21:12:00,
2013-01-26 16:22:00,72.0,72.0,30.21,NNW,343,6.0,8.0,100,0.00,,,0.01,,2013-01-26 21:22:00,
2013-01-26 16:32:00,71.0,71.0,30.21,WNW,301,7.0,10.0,100,0.00,,,0.01,,2013-01-26 21:32:00,
2013-01-26 16:42:00,71.0,71.0,30.21,WNW,301,7.0,10.0,100,0.00,,,0.01,,2013-01-26 21:42:00,
2013-01-26 16:52:00,69.0,69.0,30.20,WNW,302,7.0,10.0,100,0.00,,,0.01,,2013-01-26 21:52:00,
2013-01-26 17:02:00,69.0,69.0,30.20,NW,326,8.0,13.0,100,0.00,,,0.01,,2013-01-26 22:02:00,
2013-01-26 17:12:00,69.0,69.0,30.20,NW,326,8.0,13.0,100,0.00,,,0.01,,2013-01-26 22:12:00,
2013-01-26 17:22:00,68.0,68.0,30.21,WNW,298,7.0,10.0,100,0.00,,,0.01,,2013-01-26 22:22:00,
2013-01-26 17:32:00,67.0,67.0,30.21,NNW,343,4.0,9.0,100,0.00,,,0.01,,2013-01-26 22:32:00,
2013-01-26 17:42:00,67.0,67.0,30.21,NNW,343,4.0,9.0,100,0.00,,,0.01,,2013-01-26 22:42:00,
2013-01-26 17:52:00,67.0,67.0,30.22,NW,314,2.0,6.0,100,0.00,,,0.01,,2013-01-26 22:52:00,
2013-01-26 18:01:00,66.0,66.0,30.22,NW,316,3.0,5.0,100,0.00,,,0.01,,2013-01-26 23:01:00,
2013-01-26 18:12:00,66.0,66.0,30.22,NW,316,3.0,5.0,100,0.00,,,0.01,,2013-01-26 23:12:00,
2013-01-26 18:22:00,66.0,66.0,30.23,WNW,288,1.0,3.0,100,0.00,,,0.01,,2013-01-26 23:22:00,
2013-01-26 18:32:00,65.0,65.0,30.22,WNW,288,0.0,0.0,100,0.00,,,0.01,,2013-01-26 23:32:00,
2013-01-26 18:42:00,65.0,65.0,30.22,WNW,288,0.0,0.0,100,0.00,,,0.01,,2013-01-26 23:42:00,
2013-01-26 18:52:00,64.0,64.0,30.22,WNW,288,0.0,1.0,100,0.00,,,0.01,,2013-01-26 23:52:00,
2013-01-26 19:02:00,63.0,63.0,30.22,WNW,288,0.0,2.0,100,0.00,,,0.01,,2013-01-27 00:02:00,
2013-01-26 19:12:00,63.0,63.0,30.22,WNW,288,0.0,2.0,100,0.00,,,0.01,,2013-01-27 00:12:00,
2013-01-26 19:21:00,63.0,63.0,30.23,WNW,288,1.0,3.0,100,0.00,,,0.01,,2013-01-27 00:21:00,
2013-01-26 19:32:00,63.0,63.0,30.23,WNW,289,0.0,1.0,100,0.00,,,0.01,,2013-01-27 00:32:00,
2013-01-26 19:42:00,63.0,63.0,30.23,WNW,289,0.0,1.0,100,0.00,,,0.01,,2013-01-27 00:42:00,
2013-01-26 19:52:00,62.0,62.0,30.23,WNW,289,0.0,2.0,100,0.00,,,0.01,,2013-01-27 00:52:00,
2013-01-26 20:01:00,61.0,61.0,30.23,WNW,289,0.0,1.0,100,0.00,,,0.01,,2013-01-27 01:01:00,
2013-01-26 20:11:00,61.0,61.0,30.23,WNW,289,0.0,1.0,100,0.00,,,0.01,,2013-01-27 01:11:00,
2013-01-26 20:22:00,61.0,61.0,30.23,WNW,289,0.0,0.0,100,0.00,,,0.01,,2013-01-27 01:22:00,
2013-01-26 20:32:00,60.0,60.0,30.23,WNW,289,0.0,0.0,100,0.00,,,0.01,,2013-01-27 01:32:00,
2013-01-26 20:42:00,60.0,60.0,30.23,WNW,289,0.0,0.0,100,0.00,,,0.01,,2013-01-27 01:42:00,
2013-01-26 20:52:00,60.0,60.0,30.23,WNW,289,0.0,0.0,100,0.00,,,0.01,,2013-01-27 01:52:00,
2013-01-26 21:01:00,60.0,60.0,30.24,WNW,289,0.0,2.0,100,0.00,,,0.01,,2013-01-27 02:01:00,
2013-01-26 21:12:00,60.0,60.0,30.24,WNW,289,0.0,2.0,100,0.00,,,0.01,,2013-01-27 02:12:00,
2013-01-26 21:22:00,60.0,60.0,30.24,WNW,289,0.0,0.0,100,0.00,,,0.01,,2013-01-27 02:22:00,
2013-01-26 21:32:00,60.0,60.0,30.24,WNW,289,0.0,0.0,100,0.00,,,0.01,,2013-01-27 02:32:00,
2013-01-26 21:42:00,60.0,60.0,30.24,WNW,289,0.0,0.0,100,0.00,,,0.01,,2013-01-27 02:42:00,
2013-01-26 21:52:00,60.0,60.0,30.24,WNW,289,0.0,0.0,100,0.00,,,0.01,,2013-01-27 02:52:00,
2013-01-26 22:02:00,60.0,60.0,30.24,WNW,289,0.0,1.0,100,0.00,,,0.01,,2013-01-27 03:02:00,
2013-01-26 22:11:00,60.0,60.0,30.24,WNW,289,0.0,1.0,100,0.00,,,0.01,,2013-01-27 03:11:00,
2013-01-26 22:21:00,60.0,60.0,30.24,WNW,289,0.0,2.0,100,0.00,,,0.01,,2013-01-27 03:21:00,
2013-01-26 22:32:00,59.0,59.0,30.25,WNW,289,0.0,1.0,100,0.00,,,0.01,,2013-01-27 03:32:00,
2013-01-26 22:42:00,59.0,59.0,30.25,WNW,289,0.0,1.0,100,0.00,,,0.01,,2013-01-27 03:42:00,
2013-01-26 22:52:00,59.0,59.0,30.25,WNW,289,0.0,0.0,100,0.00,,,0.01,,2013-01-27 03:52:00,
2013-01-26 23:02:00,59.0,59.0,30.25,WNW,289,0.0,0.0,100,0.00,,,0.01,,2013-01-27 04:02:00,
2013-01-26 23:12:00,59.0,59.0,30.25,WNW,289,0.0,0.0,100,0.00,,,0.01,,2013-01-27 04:12:00,
2013-01-26 23:21:00,59.0,59.0,30.26,WNW,289,1.0,2.0,100,0.00,,,0.01,,2013-01-27 04:21:00,
2013-01-26 23:32:00,59.0,59.0,30.26,WNW,289,0.0,0.0,100,0.00,,,0.01,,2013-01-27 04:32:00,
2013-01-26 23:41:00,59.0,59.0,30.26,WNW,289,0.0,0.0,100,0.00,,,0.01,,2013-01-27 04:41:00,
2013-01-26 23:52:00,58.0,58.0,30.26,WNW,289,0.0,0.0,100,0.00,,,0.01,,2013-01-27 04:52:00,